Find Starlink 31646

NORAD ID: 59265 Int'l Des: 2024-050 Owner: SPXS Country: US Constellation: starlink operational
LEOCIRCULAR

当前视图

正在加载3D地球...

About Starlink 31646

Starlink 31646 (NORAD 59265) is a starlink constellation satellite (v2 mini) launched Mar 19, 2024 by SPXS of US. It operates in LEO, CIRCULAR orbit with a mass of 730.00 kg.

即将过境

Passes for default location (London). Set your location on the main map for personalized predictions.

高度历史

Loading altitude history...

两行轨道根数

1 59265U 24050M 26235.95825101 .00000807 00000-0 35043-4 0 9991
2 59265 53.1589 122.2355 0001634 102.0424 258.0762 15.34393674136181
Epoch: Aug 23, 2026 • Age: 45 hours

当前状态

高度 463.6 km
远地点 / 近地点 N/A
速度 7.64 km/s
星下点 26.24°N, 146.35°W
发射日期 Mar 19, 2024
运行时间 2.4 years
类型 internet

技术详情

分类 Payload
质量 730.00 kg
干质量 700.00 kg
总质量 730.00 kg
长度 0.30 m
直径 4.10 m
跨度 29.00 m
形状 Box + pan
制造商 SPXS
平台类型 Starlink V2M
阶段状态 In Orbit
所有者/国家 SPXS/US

Most Searched